Regional Weather Roundup
Issued by NWS Charleston, WV

Home | Current Version | Previous Version | Graphics & Text | Print | Product List | Glossary On
Versions: 1 2 3 4 5 6 7 8 9 10 11 12 13 14 15 16 17 18 19 20 21 22 23 24 25 26 27
000
ASUS41 KRLX 050310
RWRRLX
West Virginia Regional Weather Roundup
National Weather Service Charleston WV
1100 PM EDT WED MAY 04 2016

Note: "fair" indicates few or no clouds below 12,000 feet with no
significant weather and/or obstructions to visibility.

WVZ003-050400-
Northern Panhandle of West Virginia

CITY           SKY/WX    TMP DP  RH WIND       PRES   REMARKS
WHEELING       LGT RAIN  49  47  93 CALM      29.69S
$$

WVZ009-050400-
Northwest West Virginia

CITY           SKY/WX    TMP DP  RH WIND       PRES   REMARKS
PARKERSBURG    LGT RAIN  50  49  96 S3        29.72S
$$

WVZ006-050400-
Western West Virginia

CITY           SKY/WX    TMP DP  RH WIND       PRES   REMARKS
HUNTINGTON     LGT RAIN  49  44  83 NW12      29.73R
$$

WVZ015-050400-
West Central West Virginia

CITY           SKY/WX    TMP DP  RH WIND       PRES   REMARKS
CHARLESTON     RAIN      51  50  96 CALM      29.70S FOG
$$

WVZ022-031-050400-
North Central West Virginia

CITY           SKY/WX    TMP DP  RH WIND       PRES   REMARKS
CLARKSBURG     CLOUDY    50  47  89 CALM      29.70S
MORGANTOWN     CLOUDY    52  43  71 CALM      29.71S
$$

WVZ025-035-042-045-050400-
Southern West Virginia

CITY           SKY/WX    TMP DP  RH WIND       PRES   REMARKS
BECKLEY        CLOUDY    47  44  90 CALM      29.71S
LOGAN          NOT AVBL
BLUEFIELD      CLOUDY    45  43  93 CALM      29.72F
LEWISBURG      CLOUDY    48  42  79 W3        29.71S
$$

WVZ047-050400-
Northern Mountains of West Virginia

CITY           SKY/WX    TMP DP  RH WIND       PRES   REMARKS
ELKINS         CLOUDY    48  43  82 W3        29.72R
$$

WVZ052-050400-
Eastern Panhandle of West Virginia

CITY           SKY/WX    TMP DP  RH WIND       PRES   REMARKS
MARTINSBURG    CLOUDY    54  53  97 E5        29.68S FOG
PETERSBURG     CLOUDY    57  46  66 CALM      29.68R
$$




USA.gov is the U.S. government's official web portal to all federal, state and local government web resources and services.